Tracking 20623 objects as of 3-Apr-2020
HD Live streaming from Space Station
objects crossing your sky now

COSMOS 1633

Track COSMOS 1633 now!
10-day predictions
COSMOS 1633 is classified as:


NORAD ID: 15592
Int'l Code: 1985-020A
Perigee: 471.1 km
Apogee: 489.5 km
Inclination: 82.5 °
Period: 94.1 minutes
Semi major axis: 6851 km
RCS: 7.2924 m2 (large)
Launch date: March 5, 1985
Source: Commonwealth of Independent States (former USSR) (CIS)
Launch site: PLESETSK MISSILE AND SPACE COMPLEX (PKMTR)
aabbcc
Your satellite tracking list
Your tracking list is empty




NASA's NSSDC Master Catalog

Two Line Element Set (TLE):
1 15592U 85020A   20093.83341727 +.00001210 +00000-0 +39214-4 0  9993
2 15592 082.5409 014.6099 0013439 153.2230 206.9708 15.30893229920057
Source of the keplerian elements: AFSPC